Location: Unspecified
(0.0000°N, 0.0000°E)
Time: 02:27:33
(UTC+00:00)

NOSS 3-2 (C) - Pass Details

Date: 13 June 2023
Orbit: 728 x 1484 km, 63.4° (Epoch: 24 September)

Event Time Altitude Azimuth Distance (km) Brightness Sun altitude
Rises 04:27:30 0° 306° (NW) 4,531 6.7 -21.2°
Enters shadow 04:29:19 - 300° (WNW) 4,069 6.4 -20.7°
Exits shadow 04:43:27 11° 204° (SSW) 3,453 5.9 -17.5°
Drops below altitude 10° 04:43:59 10° 201° (SSW) 3,558 6.0 -17.4°
Sets 04:47:49 0° 186° (S) 4,461 6.6 -16.5°
